Weather in Aboleshevo

Russia / Tver Oblast     56°15′05″N   35°03′07″E
temp.,
°C
wind,
m/s
gust,
m/s
humid.,
%
clouds,
%
prec.,
mm/h
press.,
hPa
HPBL,
m
12 april, mon
mon1200:00+8s34775 0.0 103158
03:00+6s34794 0.0 103253
06:00+6sse23791 0.0 103246
09:00+10se486040 0.0 1032354
12:00+14ese5945100 0.0 10301004
15:00+14ese6940100 0.0 10291116
18:00+12ese41062100 0.0 1027651
21:00+10se31082100 0.0 1026367
13 april, tue
tue1300:00+8ese2694100 0.0 1025130
03:00+7ese2597100 0.0 1024112
06:00+7se3795100 0.0 1023154
09:00+11s31076100 0.0 1023339
12:00+16s5955100 0.0 1022666
15:00+19s5846100 0.0 10211816
18:00+17sse385474 0.0 1020262
21:00+14sse41266100 0.0 1020392
14 april, wed
wed1400:00+10sse38785 0.0 1020157
03:00+9sse2675100 0.0 1019123
06:00+10sse397581 0.0 1018216
09:00+12s41172100 0.0 1018465
12:00+16s485778 0.0 10181061
15:00+18s575299 0.7 10171503
18:00+15s2567100 1.0 1016151
21:00+12s2275100 1.0 101714
15 april, thu
thu1500:00+10ene1182100 0.0 101711
03:00+9ene2382100 0.0 101750
06:00+8ne2486100 0.0 101758
09:00+11ne2374100 0.0 1018231
12:00+14ne335799 0.0 1017593
15:00+16ne4649100 0.1 10171663
18:00+13ne5967100 0.3 1017404
21:00+9ne51186100 0.6 1019373
16 april, fri
fri1600:00+8ne3989100 0.1 1020442
03:00+7nne51193100 0.9 1020418
06:00+6ne51191100 0.0 1021473
09:00+7ne61285100 0.0 1021551
12:00+11ene71072100 0.0 1022788
15:00+11ene6970100 0.0 1023943
18:00+10ene61071100 0.0 1024928
21:00+7ne5127398 0.0 1026578